Theta_e
312 319 327 321 320 319 317 316 314 313 311 313 317 316 315 315 314 313 313 314 313 314 314 314 315 313 313 313 313 314 313 314 314 313 313 313 311 310 310 310 310 309 310 309 307 305 305 304 303 303 303 306 311 314 316 319 321 322 324 325 326 326 326 325 325 325 325 324 324 323 323 322 322 322 321 322 321 322 321 321 322 321 321 320 318 318
317 319 322 321 319 317 316 317 315 312 311 313 316 317 316 315 315 314 313 313 312 313 314 314 315 314 313 313 313 314 314 313 314 314 314 314 314 314 313 313 312 311 311 312 311 308 304 303 303 303 303 307 310 313 316 318 320 322 323 324 325 326 326 326 326 325 325 324 324 323 323 322 322 322 321 321 321 321 321 321 321 321 320 320 318 318
322 320 321 320 316 314 316 317 315 313 312 315 316 317 317 315 315 314 314 314 313 314 314 314 314 313 313 314 313 313 313 314 314 315 315 315 315 315 315 315 314 313 314 313 314 314 306 301 302 302 303 307 309 312 314 316 319 321 322 323 324 325 326 326 326 325 325 325 324 324 323 323 322 322 321 321 321 321 321 320 321 321 321 320 318 318
320 321 320 316 312 312 315 317 317 315 314 317 318 317 317 315 316 316 315 314 314 313 313 313 314 314 313 313 314 314 315 315 315 316 316 317 317 317 316 315 315 314 314 313 313 315 308 302 301 302 303 306 309 311 313 315 317 319 321 323 323 324 325 326 326 325 325 325 324 324 324 323 323 322 321 321 321 321 321 320 320 321 321 321 319 318
318 317 313 312 314 314 315 319 320 317 316 317 318 317 317 317 316 315 315 314 313 313 313 314 316 316 315 315 316 315 316 316 315 316 315 317 318 318 316 315 315 314 313 313 312 311 310 307 303 301 302 305 307 310 312 313 315 317 319 321 323 324 324 325 325 325 325 325 324 324 323 323 323 322 320 320 320 320 320 320 320 320 321 321 320 319
316 313 310 313 318 317 315 318 318 317 316 317 319 319 318 318 317 317 315 314 315 316 315 316 319 320 318 317 316 315 316 315 315 315 315 315 316 317 317 316 314 312 312 312 311 309 310 310 306 302 302 303 305 309 311 312 314 315 317 320 322 323 324 324 325 324 324 324 324 323 323 322 321 320 320 319 319 319 319 319 320 320 320 320 320 319
317 315 313 314 316 316 317 317 317 316 315 318 320 318 318 318 317 317 316 315 317 317 315 315 317 318 318 316 315 315 315 315 315 315 315 314 314 314 315 313 310 309 310 310 310 310 309 309 308 304 302 303 304 306 309 311 313 314 316 318 321 323 323 324 324 324 324 324 323 323 322 322 321 320 320 320 320 319 318 318 319 320 320 320 319 319
320 317 317 317 315 315 316 316 318 318 315 319 322 318 317 317 316 317 316 315 316 315 314 314 316 317 317 315 314 315 315 315 314 314 314 314 313 311 310 309 308 308 308 309 309 309 309 309 308 305 303 303 304 305 306 308 311 313 314 316 319 321 323 324 324 324 323 323 323 323 323 322 321 321 320 321 320 319 318 318 318 319 319 319 319 319
318 315 316 316 314 314 316 314 317 318 314 320 323 317 315 315 314 315 315 314 314 315 315 314 315 317 317 315 314 316 316 315 314 314 314 313 311 308 308 307 307 307 307 307 307 308 309 309 306 304 304 304 305 305 305 306 309 312 313 315 317 320 322 323 323 324 323 323 323 322 323 322 321 321 321 320 320 319 318 317 317 317 318 318 318 318
313 313 312 312 312 314 315 314 316 316 314 318 319 313 314 314 312 314 315 313 313 315 316 314 314 316 316 314 314 316 315 315 314 313 313 311 308 308 308 307 306 306 306 305 305 305 306 306 304 305 305 304 305 305 305 305 307 310 313 314 315 318 321 322 323 323 323 323 323 322 322 322 321 321 321 320 319 318 317 317 317 316 316 317 317 317
313 313 311 310 312 314 315 314 314 314 313 314 315 314 316 314 313 314 314 313 315 316 316 314 314 316 316 315 314 316 315 314 313 312 312 310 310 309 307 306 305 304 304 303 302 302 302 302 303 304 304 304 304 304 304 305 306 309 312 313 314 316 319 321 322 322 322 323 322 322 322 322 321 321 320 319 318 318 317 316 316 316 316 316 315 316
314 314 315 313 314 315 314 314 312 312 313 314 315 316 314 313 313 315 315 314 316 317 314 314 316 316 316 314 314 316 313 312 312 311 311 311 311 309 306 304 302 302 301 300 300 300 301 301 302 303 303 303 303 304 304 305 305 307 310 313 314 315 318 320 321 321 321 322 322 322 322 322 321 320 319 318 318 317 317 317 316 315 315 315 315 315
316 321 320 314 312 312 312 313 311 313 316 315 314 315 314 314 314 316 316 314 314 315 310 311 313 312 312 311 310 312 310 310 310 309 310 312 310 306 303 301 300 300 300 299 300 300 301 301 302 302 302 302 302 303 304 305 305 307 309 312 314 315 317 319 320 321 321 321 321 321 321 321 321 320 319 318 318 318 317 317 316 315 315 314 313 313
316 320 318 313 312 311 311 312 311 313 315 312 312 314 314 314 314 315 314 312 312 311 308 309 310 310 310 309 309 311 310 309 308 308 310 310 307 302 300 299 299 299 299 300 300 301 301 301 302 302 302 302 302 303 305 305 305 306 308 311 313 315 316 317 319 320 320 320 320 320 320 321 321 320 319 318 318 317 317 317 317 315 315 314 313 313
312 312 314 313 311 311 310 310 310 311 311 311 313 313 312 312 313 314 313 312 311 310 310 311 311 311 310 309 310 310 307 305 305 306 306 304 301 298 298 298 298 299 300 300 301 301 301 301 301 302 301 301 302 303 305 306 305 306 308 309 312 314 315 317 318 319 320 320 319 319 319 319 320 319 318 318 318 317 317 317 317 316 315 314 314 313
313 312 313 312 310 312 311 307 308 309 309 312 313 310 309 308 309 310 310 311 311 309 310 310 309 310 308 309 310 306 301 300 300 302 302 300 298 297 298 298 299 300 300 300 300 300 301 302 302 302 301 301 302 303 305 306 306 306 307 308 310 312 314 316 317 318 319 319 319 319 319 319 319 319 318 317 317 317 317 317 317 316 316 315 314 314
313 313 312 310 310 311 308 305 306 307 307 311 311 309 307 306 306 308 309 310 309 307 308 307 307 307 304 307 308 302 298 297 298 299 298 297 297 297 298 298 299 300 299 299 299 299 301 302 303 302 301 301 302 303 304 305 307 306 307 308 309 310 313 315 316 317 318 318 318 318 318 318 319 319 318 317 316 316 316 316 317 316 316 315 315 314
311 311 309 307 309 309 304 303 304 305 306 308 310 308 305 304 306 306 306 305 305 305 305 305 305 304 303 305 304 298 296 296 297 297 297 297 297 298 298 299 299 298 297 298 297 298 302 303 302 302 302 302 303 303 304 305 307 307 307 308 308 309 311 313 315 316 317 317 317 317 317 318 318 318 318 318 317 316 315 315 315 315 315 315 315 314
310 310 307 306 309 307 302 302 306 308 307 306 306 304 302 303 302 301 302 303 303 305 306 305 304 304 305 305 300 295 295 297 297 297 296 297 297 298 299 298 297 297 297 297 296 298 302 302 301 301 301 302 302 303 303 305 306 307 307 308 308 309 310 311 313 315 316 316 316 317 316 317 317 317 317 317 317 316 315 314 314 314 314 314 314 314
310 310 308 306 306 302 299 304 307 306 303 301 300 299 298 300 301 301 302 302 303 304 303 302 301 301 303 301 296 295 296 297 297 296 296 297 298 298 298 297 297 296 296 296 296 298 302 301 300 300 300 300 301 302 303 304 305 307 307 308 308 309 309 310 312 313 314 315 315 315 315 315 316 316 316 316 316 315 315 314 314 313 313 313 313 313
308 308 306 303 302 298 297 304 305 300 298 297 296 296 297 299 300 299 298 298 299 298 297 297 296 296 297 296 295 297 297 297 296 296 297 298 298 298 297 297 296 296 295 295 295 299 301 301 300 300 299 299 300 302 303 303 304 306 307 308 308 309 309 310 311 312 313 314 314 314 314 314 314 314 315 315 315 314 314 314 314 314 313 313 312 312
305 306 304 300 298 297 297 301 300 297 297 296 295 296 298 297 296 295 295 295 296 295 295 296 295 295 296 297 297 297 296 296 296 297 297 298 298 297 296 296 296 295 295 295 295 299 301 300 300 299 298 298 299 301 303 303 304 304 306 308 308 309 309 309 310 311 312 312 313 313 313 313 313 313 313 314 314 314 313 313 313 313 313 313 312 312
302 302 302 299 298 297 297 297 297 296 296 296 296 296 296 294 294 294 294 294 295 295 295 296 296 296 297 298 297 296 296 296 297 297 298 298 298 297 296 296 295 295 295 294 296 299 300 299 299 299 298 297 298 300 302 303 304 304 305 307 308 308 309 309 310 311 311 312 312 312 312 313 312 312 312 313 313 313 313 313 312 312 312 312 312 312
301 299 299 298 296 295 295 295 296 297 296 294 294 294 294 294 294 294 295 294 295 295 295 295 295 296 296 297 297 295 296 297 297 297 298 298 297 297 296 295 295 295 294 295 297 299 300 299 298 298 298 297 298 299 301 303 303 303 304 305 307 308 309 309 309 310 311 311 311 311 312 312 312 312 311 312 312 312 312 312 312 312 311 311 311 311
300 298 299 296 293 292 292 293 294 295 294 293 293 293 294 294 294 294 294 294 295 294 294 295 295 295 295 296 296 296 297 296 295 297 298 298 297 296 296 295 295 294 294 294 297 299 300 298 298 298 298 297 297 298 301 302 303 303 303 304 306 308 309 309 309 310 311 311 311 311 311 311 311 311 311 311 311 311 312 312 311 310 310 310 310 310
299 298 297 295 293 292 291 292 292 293 294 293 294 294 294 294 294 294 294 294 294 294 294 295 295 295 295 295 296 296 295 294 294 296 298 298 297 296 295 295 294 293 293 294 297 299 299 298 298 298 297 297 297 298 300 301 303 302 301 301 303 306 308 309 309 310 310 311 310 310 310 310 311 311 311 311 310 310 311 311 311 310 310 310 309 309
298 297 296 295 295 293 292 293 293 294 294 294 294 294 294 294 294 294 294 294 294 294 294 295 295 295 295 295 294 294 293 293 293 296 297 297 297 296 295 294 293 293 293 294 296 298 298 298 298 298 297 296 296 297 299 300 302 302 300 300 301 303 305 307 309 310 310 310 310 310 310 309 310 310 310 310 310 310 310 310 310 309 309 309 309 309
296 296 294 294 294 293 293 293 293 294 294 294 294 294 293 294 294 294 294 294 293 294 294 294 295 295 294 292 292 292 292 293 294 296 296 296 296 296 294 293 293 293 293 293 295 297 298 298 298 297 297 296 296 297 298 300 301 301 300 299 300 302 303 305 306 308 309 310 310 310 310 309 309 309 309 310 309 309 309 309 309 308 307 307 307 308
295 294 293 293 294 293 293 294 294 294 294 294 294 293 293 293 293 293 293 293 293 294 294 294 293 292 291 290 291 291 292 293 294 294 295 296 296 295 293 292 292 292 292 293 294 296 297 298 297 297 297 296 296 296 297 299 301 300 299 299 299 302 303 303 303 305 308 309 309 309 310 309 309 309 308 309 308 308 308 308 308 307 306 306 306 306
295 294 294 294 294 294 294 294 294 294 294 293 293 293 293 292 292 293 293 293 293 292 292 291 290 290 290 290 291 292 293 293 293 293 294 295 295 295 293 292 292 292 292 292 293 295 297 297 297 297 296 296 295 296 297 298 300 300 299 299 300 301 302 301 301 303 305 308 308 309 309 309 309 308 308 308 308 308 307 307 307 306 305 305 304 304
295 295 295 294 294 294 293 294 294 294 293 293 292 292 292 292 292 293 292 291 290 290 289 289 289 290 290 291 291 292 293 292 293 293 293 294 295 294 292 292 292 292 292 293 293 295 297 297 296 295 295 295 295 295 296 298 299 299 299 299 300 301 301 300 300 301 303 306 308 309 309 309 309 308 307 307 306 306 306 305 305 304 304 303 303 303
295 295 295 294 294 294 293 293 293 293 293 293 292 292 292 292 292 291 290 289 289 289 289 289 290 290 290 291 291 291 292 292 292 292 292 293 294 293 292 291 292 292 292 292 293 296 297 296 295 295 295 295 294 295 296 297 298 298 298 299 300 300 300 299 299 300 301 304 307 308 308 308 308 308 307 306 305 305 305 304 303 302 302 302 302 302
294 295 295 294 294 294 293 293 293 293 293 292 293 292 291 291 290 289 289 289 289 289 289 289 290 290 290 290 291 291 292 292 292 292 293 293 293 292 291 291 292 292 292 293 294 296 296 295 294 294 294 294 294 294 295 297 298 298 298 299 299 300 299 298 298 299 300 302 305 306 307 307 307 307 306 305 305 304 303 302 301 301 301 301 301 301
294 294 294 294 294 294 293 292 293 293 293 293 292 291 290 289 289 289 289 289 289 289 289 289 289 289 290 291 291 292 292 292 292 292 293 293 292 291 291 292 292 292 292 293 294 294 294 294 294 294 294 294 294 294 295 296 297 297 297 298 299 299 298 298 298 298 299 301 303 305 306 306 306 306 305 305 304 303 301 301 300 300 300 300 300 300
294 294 294 294 294 294 293 293 292 292 293 292 290 290 290 289 289 289 289 289 289 289 289 289 289 290 290 291 291 291 291 291 292 292 292 292 291 291 292 292 292 292 292 293 293 293 293 293 293 293 293 293 294 294 295 296 296 297 297 297 298 298 297 297 297 298 299 300 301 303 304 305 305 304 304 303 303 302 300 300 299 298 299 299 299 299
293 294 293 294 294 293 292 292 292 291 290 290 290 290 289 289 289 289 289 289 289 289 289 289 289 290 290 291 291 291 291 291 291 291 291 292 292 292 292 292 292 293 293 293 293 293 293 293 293 293 293 293 294 294 294 295 295 296 296 297 298 297 297 297 297 297 298 299 300 302 302 303 303 303 303 302 301 300 299 299 298 298 298 298 298 298
293 294 293 293 293 292 291 291 290 290 290 289 289 289 289 288 288 288 288 289 289 289 289 289 290 290 290 291 291 291 291 291 291 291 292 292 293 293 293 293 293 293 293 293 292 292 292 292 293 293 293 293 293 293 294 294 295 295 295 296 297 297 296 296 297 297 298 299 300 301 302 302 302 302 302 301 300 299 299 298 298 298 298 297 297 297
292 293 293 293 292 291 291 290 290 290 289 289 289 289 289 289 289 289 289 289 289 289 290 290 290 290 290 290 291 291 291 291 291 292 292 293 293 293 293 293 293 292 292 292 292 292 292 292 292 293 293 293 293 293 294 294 294 294 295 296 297 297 296 296 296 297 298 298 299 300 301 301 301 301 301 300 299 298 298 298 298 298 298 297 297 297
292 292 291 291 291 290 290 289 289 289 289 289 289 289 289 289 289 289 289 289 289 290 290 290 290 290 290 290 290 290 291 291 292 292 292 293 293 292 292 292 292 292 292 292 292 292 292 292 292 292 292 292 292 293 293 293 294 294 295 296 297 296 296 296 296 297 298 298 299 299 300 301 300 300 300 299 299 299 298 298 298 298 298 297 297 297
291 291 290 290 290 290 290 289 290 289 289 289 289 289 289 289 289 289 289 290 290 290 290 290 290 290 290 290 291 291 292 292 292 292 292 292 290 290 290 290 290 290 290 290 291 291 291 291 291 291 291 292 292 293 293 293 293 294 294 295 296 296 296 296 296 297 297 298 299 299 299 300 300 299 299 299 298 298 298 298 298 298 297 297 297 296
292 292 292 291 290 290 290 290 290 289 289 290 289 289 289 289 289 290 290 290 290 290 290 290 290 290 291 291 290 290 289 288 287 286 286 285 284 284 285 286 287 287 288 288 289 289 289 290 290 291 291 291 291 292 292 293 293 293 294 294 295 296 296 296 297 297 297 298 299 299 299 299 299 299 299 299 298 298 298 298 297 297 296 296 296 296
291 292 292 291 290 290 290 290 290 290 290 290 290 290 290 290 290 290 290 290 290 290 290 291 291 290 289 285 283 282 281 281 280 280 280 280 280 280 281 281 282 282 282 283 284 284 284 286 287 288 289 290 291 292 292 292 292 292 292 294 295 296 296 297 297 297 297 298 299 299 299 298 299 299 299 298 298 297 297 297 297 296 296 296 295 295
291 291 291 291 291 291 291 291 291 290 291 290 290 290 290 290 290 290 290 290 291 291 291 289 288 285 282 279 277 277 277 277 277 277 277 277 277 277 277 277 277 277 278 279 279 280 282 283 283 284 286 287 289 290 290 290 291 291 292 294 296 296 296 297 297 297 297 298 298 299 298 298 298 298 298 298 297 297 296 296 296 296 295 295 295 295
291 291 290 290 291 291 290 291 291 290 290 290 290 290 290 290 290 290 290 290 290 290 288 284 281 279 277 276 276 275 275 275 275 275 275 275 275 274 275 275 275 275 276 277 277 279 280 280 280 281 282 284 285 286 287 288 290 291 293 294 296 296 296 296 297 297 297 297 298 298 298 298 297 297 297 297 297 296 296 296 295 295 295 295 295 294
291 291 291 290 291 291 291 290 290 290 290 290 290 290 290 290 290 290 290 289 288 286 282 279 277 276 275 274 273 273 273 273 273 273 273 273 273 273 273 274 274 275 275 276 277 278 279 279 279 280 281 282 284 286 287 289 290 292 293 295 295 296 296 296 297 297 296 297 297 297 298 297 296 296 297 297 296 296 296 295 295 294 294 294 294 294
291 291 291 291 290 291 291 291 290 290 290 290 290 290 289 290 290 289 287 285 283 281 278 276 275 274 273 273 272 272 272 272 272 272 272 272 272 272 273 273 274 274 275 275 276 277 278 278 278 279 280 281 284 286 287 289 291 292 294 294 295 296 296 296 296 296 296 296 296 297 297 296 296 296 296 296 296 296 296 295 294 294 294 293 293 294
291 292 291 290 291 291 290 290 290 290 290 290 290 289 289 290 288 285 282 281 279 277 275 274 273 273 272 272 271 271 271 271 271 270 271 271 271 272 272 273 273 274 274 275 276 277 278 278 278 278 280 283 286 288 289 290 292 293 294 294 295 296 296 296 296 296 296 296 296 297 296 296 295 295 295 295 295 296 296 295 294 294 294 293 293 293
291 291 291 290 290 290 290 290 290 289 290 289 289 289 289 287 284 281 279 278 276 274 273 273 272 272 271 270 270 270 270 270 270 270 270 270 271 271 272 272 273 273 274 275 276 277 277 277 278 278 280 283 286 289 291 292 293 294 294 294 295 295 296 295 295 295 295 296 296 296 296 296 295 295 295 295 295 295 295 295 294 294 294 294 294 293
291 291 291 290 290 290 290 290 289 289 289 288 288 288 286 283 280 278 277 275 273 272 272 271 271 270 270 269 269 269 269 269 269 269 270 270 271 271 272 272 273 274 274 275 276 277 277 278 278 278 279 283 287 290 291 293 293 294 294 294 295 295 295 295 295 295 295 296 296 296 295 295 295 295 295 295 294 295 295 295 294 294 294 294 294 294
291 290 291 291 291 290 291 290 288 287 287 287 287 286 283 279 277 276 274 272 272 271 271 270 269 269 269 269 268 268 268 268 269 269 270 271 271 272 272 273 273 274 275 276 277 277 278 278 278 279 281 285 289 291 292 293 293 293 294 294 294 295 295 295 295 295 295 295 295 295 295 295 295 295 295 294 294 294 295 295 294 294 294 294 294 294
291 291 291 291 290 290 290 288 284 283 285 286 286 283 279 277 276 274 272 271 271 271 270 269 268 268 268 268 268 268 268 268 269 270 270 271 272 273 274 275 275 275 276 277 277 278 278 279 281 283 285 287 289 290 290 291 291 291 292 292 293 293 294 294 295 295 295 295 295 295 295 295 295 295 294 294 294 294 294 294 293 294 294 294 293 293
Wind_Speed
3 4 3 4 5 7 8 7 6 3 1 5 7 7 9 8 12 14 14 12 2 3 13 11 12 18 20 24 27 26 22 17 16 17 15 11 10 11 12 13 14 14 14 11 12 16 16 20 25 28 30 30 29 31 34 36 38 39 40 39 39 40 42 43 41 39 39 38 38 37 37 39 39 37 36 37 39 40 40 39 39 39 39 39 39 38
5 4 6 8 8 9 8 7 5 1 3 4 5 7 9 6 11 15 13 14 3 2 12 11 9 17 20 25 26 23 24 22 18 17 18 16 13 12 11 14 14 12 12 10 11 12 12 15 20 24 27 28 29 32 36 39 41 42 42 42 41 40 40 42 44 42 41 41 41 38 37 39 39 39 39 38 39 41 41 40 40 40 41 40 41 41
4 3 10 9 5 4 5 6 4 2 5 5 4 5 7 5 8 12 11 13 4 4 9 11 7 15 22 26 25 22 21 19 17 16 17 17 15 13 12 11 11 12 14 13 13 11 7 9 14 19 23 28 32 34 36 40 41 41 42 41 41 40 40 41 44 43 41 43 44 41 38 38 37 38 40 41 41 42 42 41 41 41 42 41 42 43
4 7 9 4 3 2 4 5 4 4 2 5 4 4 7 8 6 7 9 12 8 4 11 9 5 11 20 23 21 22 20 16 18 18 16 13 10 12 12 8 9 13 15 16 17 13 9 8 9 14 20 25 28 29 32 37 38 40 42 42 42 43 44 44 44 45 43 41 42 42 40 39 36 36 39 40 40 42 42 42 42 41 42 42 43 43
8 11 5 3 4 4 3 5 6 6 4 3 6 6 7 10 9 8 9 10 10 13 14 7 4 7 13 20 18 17 18 17 18 19 19 14 6 8 10 9 9 11 11 14 16 15 14 11 10 13 17 20 23 26 31 36 40 42 43 45 45 46 48 48 47 46 43 39 39 39 37 36 34 32 34 36 38 41 42 44 44 43 43 43 43 43
10 8 2 4 2 1 1 6 6 4 5 4 5 9 10 11 11 10 10 8 6 12 11 4 4 5 8 18 19 15 18 19 20 20 24 21 11 6 7 9 9 9 9 10 11 15 16 14 14 16 17 19 22 27 35 39 42 43 44 46 47 46 46 46 47 47 44 39 38 39 36 33 33 31 34 38 41 42 42 43 45 45 44 44 44 44
5 4 3 3 2 4 3 5 5 2 1 5 4 6 8 8 7 9 10 5 3 10 12 6 7 8 7 16 21 18 20 21 21 21 22 21 16 10 7 8 10 12 11 10 11 12 14 14 14 16 19 21 24 32 38 37 37 40 41 43 45 44 42 43 46 48 46 41 38 40 39 37 35 33 35 39 40 41 42 42 44 45 45 44 44 44
3 7 6 4 3 4 4 5 4 5 3 5 6 2 5 8 8 10 9 6 5 9 15 12 8 7 8 15 19 16 19 21 18 19 20 17 15 13 12 11 12 12 11 11 11 11 11 11 11 13 19 22 25 33 36 33 35 39 41 41 43 43 42 43 45 47 48 46 41 40 39 38 38 37 37 38 38 39 41 42 43 45 45 45 44 44
1 7 8 4 4 3 4 5 4 6 3 8 8 5 7 9 8 8 8 9 8 6 13 13 4 4 9 12 12 10 14 18 16 17 17 12 13 14 13 13 13 12 12 11 12 12 10 9 12 16 22 24 25 29 31 34 37 38 39 40 40 41 42 42 44 45 46 47 45 42 39 37 38 39 38 37 36 37 39 41 43 43 44 45 45 44
2 4 3 1 3 5 5 4 5 5 3 8 7 6 6 6 6 7 9 9 6 5 14 15 5 6 10 10 9 9 11 12 12 12 10 11 13 13 13 14 14 12 11 12 13 14 12 11 16 22 26 27 26 25 26 32 35 34 35 36 37 40 41 41 43 45 44 44 44 42 41 39 38 38 37 35 35 36 38 40 41 42 43 44 44 44
5 3 3 2 4 5 1 4 5 7 5 6 6 5 5 6 5 6 7 3 1 6 14 14 9 8 11 11 8 6 8 9 9 8 9 11 12 13 13 13 14 13 11 13 14 15 16 18 22 25 26 28 30 27 22 26 32 33 33 35 37 40 40 41 43 46 47 46 43 41 41 41 39 38 37 36 36 37 38 39 40 42 43 44 44 44
7 5 3 2 1 4 6 7 2 3 4 4 5 5 5 7 5 4 4 1 1 8 10 10 8 7 11 11 6 7 12 14 12 9 8 9 10 12 12 13 14 14 14 15 15 16 17 19 22 23 23 26 31 30 22 22 29 32 32 33 35 37 40 42 43 45 47 47 45 42 40 41 40 39 38 39 39 39 40 40 40 40 41 42 44 44
5 5 3 1 3 6 7 7 8 8 6 5 5 4 5 5 4 5 5 1 5 10 8 10 9 7 13 13 11 13 14 11 9 9 8 7 9 11 14 15 14 14 17 18 16 16 16 15 18 19 19 22 27 29 26 23 26 29 31 32 33 37 41 43 43 44 46 47 47 44 42 41 41 40 40 40 41 42 42 41 41 40 40 41 42 43
4 2 3 4 2 4 7 6 6 7 6 8 4 2 4 5 5 7 6 5 8 9 10 13 13 12 13 10 10 9 6 6 7 10 10 9 10 13 15 16 16 17 18 17 17 17 16 16 17 16 16 18 23 29 29 25 23 25 28 30 33 37 40 42 42 43 45 46 48 48 45 43 41 40 40 41 41 43 43 43 43 44 43 42 43 44
5 5 2 1 1 4 7 4 1 5 8 7 1 1 4 4 5 6 5 7 11 10 12 13 10 9 9 8 7 4 3 5 10 13 14 15 15 16 16 16 18 19 19 18 18 19 19 19 19 17 16 17 23 28 28 26 21 20 24 28 31 35 37 39 40 40 42 43 45 46 47 45 42 40 40 41 42 43 44 44 44 45 45 45 45 46
5 8 4 1 1 3 5 2 0 4 8 5 0 2 4 3 5 7 8 13 15 13 10 8 8 7 9 12 8 8 10 14 18 19 19 20 20 19 18 17 18 18 19 19 19 21 22 21 20 19 19 19 24 28 28 27 22 17 23 28 31 34 36 38 38 39 40 41 42 44 45 44 43 41 39 38 40 43 45 46 45 47 48 48 46 46
3 8 6 6 7 4 7 4 5 3 6 5 3 3 4 6 8 7 9 13 13 13 9 7 11 9 11 13 6 11 18 21 23 22 21 21 21 21 18 16 17 18 18 19 19 20 22 21 20 22 24 25 28 31 31 29 26 18 21 26 30 33 34 35 37 38 39 39 40 42 43 42 42 43 42 39 39 42 45 46 46 46 48 49 48 46
3 10 14 11 8 1 3 7 9 4 3 3 3 5 6 8 6 4 8 8 8 11 8 8 16 14 12 10 5 14 23 25 24 23 21 23 25 23 18 15 16 17 17 18 19 19 18 17 20 23 28 32 34 37 36 33 29 21 18 24 27 30 33 35 35 36 37 37 37 38 40 42 42 42 43 42 41 41 42 42 43 43 44 47 49 49
3 9 15 7 4 6 7 8 7 4 1 2 3 5 6 6 5 4 7 9 9 10 8 9 15 13 10 7 9 19 26 25 21 18 19 23 23 22 20 20 21 19 17 17 18 16 15 16 18 22 28 34 37 40 39 37 33 24 18 22 27 31 33 34 33 32 33 35 36 37 40 43 43 41 41 41 41 41 41 42 42 42 43 46 48 50
2 4 12 7 7 12 10 3 2 5 6 5 5 3 2 4 6 4 5 8 9 10 11 10 10 9 7 8 16 23 24 19 16 15 17 19 17 15 16 18 19 19 18 17 15 14 14 16 19 23 28 32 35 39 39 38 35 28 21 21 25 30 31 31 31 31 31 33 34 35 36 40 42 42 40 39 39 40 42 44 45 44 44 44 46 48
2 2 9 11 12 13 8 2 4 6 9 9 8 6 4 2 4 6 6 8 7 8 10 8 9 10 7 10 17 21 18 13 14 19 19 15 12 12 13 14 15 16 17 19 17 14 14 15 18 24 29 32 34 37 38 38 35 30 23 22 25 28 28 29 30 30 30 32 32 32 34 36 39 41 41 40 39 39 40 43 46 46 45 44 45 47
0 1 6 11 10 9 8 2 2 8 9 6 4 4 5 5 6 8 8 7 5 7 10 9 12 12 6 7 12 14 14 14 17 21 17 11 10 12 12 12 13 14 16 18 17 14 13 14 16 20 25 29 30 32 35 36 35 32 25 24 25 25 27 28 29 30 31 31 31 32 34 35 37 39 40 40 39 38 39 40 42 45 47 46 46 47
2 1 4 9 9 12 14 10 9 9 5 3 3 3 5 6 6 6 9 9 7 10 11 10 14 11 3 5 10 12 15 17 18 18 12 8 9 11 12 12 13 14 15 17 16 13 12 13 15 17 20 23 25 28 31 32 33 34 30 27 24 23 27 30 30 30 30 30 31 32 32 33 35 37 39 39 38 38 39 40 41 43 46 48 48 49
2 0 2 6 10 12 12 6 4 2 3 3 5 4 5 6 6 7 9 9 8 10 10 9 13 8 3 6 11 14 17 19 19 15 7 7 10 9 11 12 12 13 15 16 15 13 11 12 13 15 16 16 20 24 26 28 29 32 33 29 25 24 27 28 26 25 26 29 31 31 31 32 34 35 37 40 40 39 38 39 40 42 44 46 47 49
1 1 3 4 10 11 8 4 3 4 6 5 7 8 8 11 13 12 9 8 8 10 12 12 12 9 9 11 13 16 20 22 21 15 7 9 10 8 10 11 11 13 15 16 16 15 14 13 12 14 13 13 17 22 24 25 26 28 31 31 27 26 28 25 22 22 24 26 28 29 31 33 33 34 37 39 40 41 40 38 38 41 43 44 45 48
2 2 2 1 7 11 10 8 8 9 8 7 9 12 13 15 18 15 9 9 10 11 14 13 13 14 16 16 16 19 22 20 20 17 12 11 9 7 10 11 10 12 15 16 16 15 14 13 12 14 14 14 17 21 23 23 24 25 29 32 31 28 27 26 24 24 24 25 26 28 31 33 33 35 37 38 39 41 42 40 38 39 42 43 45 47
0 3 3 5 8 11 11 10 12 12 10 11 13 13 13 17 19 14 8 9 12 12 13 13 17 21 20 18 19 21 20 19 19 18 15 13 11 10 9 10 11 13 15 16 15 14 14 14 14 15 14 14 18 22 24 24 22 23 27 31 33 31 27 26 26 25 25 27 29 29 31 33 35 36 36 36 36 37 39 40 39 39 41 43 44 46
2 5 4 7 12 15 13 12 14 13 12 15 16 14 16 20 18 13 11 15 15 13 11 12 19 24 22 20 21 21 20 18 17 16 16 15 13 12 10 11 15 17 17 16 15 14 14 14 14 16 15 15 17 21 24 24 23 22 24 28 31 30 27 26 26 26 27 28 29 30 32 35 36 36 35 34 33 34 36 38 38 39 40 41 43 46
2 7 7 8 14 17 12 9 13 13 13 16 14 15 19 21 18 15 17 19 16 14 14 16 21 25 21 19 21 21 19 17 16 18 18 16 14 12 11 14 19 21 20 20 18 16 14 13 14 15 15 15 16 18 21 23 24 24 24 27 30 28 26 28 29 28 29 28 27 30 32 33 33 34 34 34 33 34 36 37 37 37 38 39 41 42
2 5 7 6 12 17 12 9 12 13 14 14 13 16 22 22 19 17 18 18 16 17 20 22 25 25 19 16 18 19 17 16 18 19 18 16 15 13 13 17 21 22 21 21 19 16 13 12 14 15 16 16 15 16 18 20 23 24 25 27 28 27 27 29 30 29 29 29 28 30 31 31 31 31 32 35 36 36 35 35 36 36 37 39 39 39
3 5 7 6 9 14 13 10 11 13 14 15 15 19 23 21 16 14 15 16 16 19 22 24 24 20 15 15 17 18 18 18 19 21 20 17 14 13 16 22 23 22 22 21 20 17 14 13 14 16 17 16 16 17 18 21 24 25 25 26 26 27 29 29 28 29 29 31 31 31 30 30 30 30 32 35 37 37 36 35 36 37 37 37 38 38
2 4 6 5 6 10 11 12 14 15 16 16 16 19 19 15 12 13 15 17 19 21 23 21 17 12 12 16 18 20 21 21 21 21 18 13 12 16 21 24 23 22 22 21 18 16 15 15 16 18 18 17 17 18 20 22 24 24 26 28 28 28 29 29 28 29 29 31 33 31 30 30 31 31 32 34 36 37 37 36 35 36 37 38 38 38
2 3 4 4 4 8 12 14 16 15 14 11 11 14 15 14 16 17 17 18 21 20 17 14 12 13 16 19 20 21 22 23 22 17 12 13 16 19 22 23 22 22 20 19 18 17 16 16 16 18 18 17 19 22 24 24 23 24 27 30 30 28 27 28 29 29 28 29 33 32 31 31 32 32 33 34 35 36 35 35 36 37 38 38 38 38
3 3 3 3 3 7 12 14 12 10 9 7 8 12 16 18 21 20 18 19 21 19 15 15 17 18 19 18 19 21 21 22 23 17 14 16 18 19 22 21 20 20 18 17 18 16 16 16 17 18 20 22 25 28 28 27 25 27 31 32 30 27 25 26 28 30 29 26 31 32 31 33 33 33 34 34 35 35 35 36 38 38 38 38 38 39
4 5 3 2 2 5 9 10 8 7 7 9 13 17 19 21 20 19 19 20 22 22 19 19 21 20 20 20 19 19 20 24 27 23 20 21 19 17 20 20 20 19 18 17 17 17 16 18 18 19 21 26 29 30 29 29 28 30 33 32 29 26 23 24 25 28 30 25 28 30 30 33 33 33 33 34 34 36 36 36 37 37 37 39 40 41
4 4 3 2 3 5 5 4 6 9 11 15 19 19 17 16 15 15 17 19 21 22 19 20 22 22 22 22 18 17 21 26 30 24 16 16 18 17 17 19 19 19 19 18 18 17 16 18 20 22 25 28 30 29 29 31 31 32 33 31 28 25 22 22 22 25 28 24 25 28 28 30 31 31 32 33 34 34 35 35 36 37 38 38 39 39
6 3 2 3 4 5 5 6 8 11 13 15 16 14 12 12 13 13 15 18 20 19 17 19 23 21 21 21 20 22 23 24 27 21 9 10 16 17 17 18 18 20 21 20 18 19 20 22 26 29 30 30 30 29 31 33 34 33 33 30 27 24 21 19 19 22 25 23 22 27 28 27 29 30 31 33 34 34 34 35 35 36 37 36 36 37
5 4 3 4 4 4 5 7 8 9 10 11 15 17 14 14 15 13 13 16 19 16 13 16 20 21 21 22 23 25 22 19 23 22 11 8 14 15 15 17 17 18 20 20 20 21 22 25 27 30 31 31 31 32 33 34 34 33 30 27 26 23 19 16 17 20 24 23 21 25 28 28 30 30 31 33 35 36 36 36 36 36 37 37 37 37
1 2 3 2 3 2 3 6 7 8 8 10 17 20 17 16 15 11 10 14 16 15 13 15 22 24 23 23 24 22 17 15 19 22 17 13 15 17 17 19 20 20 22 25 26 23 23 26 30 33 34 32 31 32 34 35 35 30 25 24 25 22 16 14 16 20 23 25 24 23 26 29 30 32 33 34 36 37 38 38 38 38 38 38 37 36
2 1 0 0 4 5 4 6 7 6 7 11 17 19 17 15 13 10 10 13 16 19 20 20 25 27 24 24 23 18 15 14 15 20 25 25 24 25 23 21 24 26 25 26 30 32 33 32 29 27 27 26 27 32 36 37 32 25 22 25 24 19 15 16 19 21 23 26 27 24 24 28 30 33 35 35 36 37 39 39 38 38 38 37 35 34
2 3 1 2 6 6 6 8 7 6 10 14 16 17 15 12 10 8 11 14 17 23 25 24 26 26 23 21 18 14 15 17 19 24 31 33 32 31 28 23 23 28 28 27 32 38 37 33 28 25 24 28 34 36 36 33 24 19 23 25 20 18 19 20 22 23 24 24 25 25 24 27 31 33 35 36 37 36 37 38 38 39 39 37 34 33
2 2 3 4 5 5 6 8 8 8 10 10 10 12 11 9 8 10 12 16 20 23 24 26 26 23 20 19 18 17 20 24 26 27 30 32 30 29 31 29 26 29 32 32 35 37 32 28 29 28 28 33 35 33 31 26 20 20 25 22 19 22 25 23 23 24 24 23 24 24 24 26 30 33 34 35 36 35 35 36 37 38 39 37 35 35
2 2 4 5 6 5 6 7 6 7 8 7 9 11 10 8 10 13 15 18 21 21 20 21 22 20 18 18 21 24 26 29 29 27 27 29 27 24 26 27 25 26 28 27 28 29 26 21 21 24 29 33 32 31 33 28 21 21 23 20 23 28 27 23 24 25 23 23 23 23 24 27 30 32 33 34 35 35 34 34 35 36 37 37 35 33
4 3 2 5 5 4 5 6 6 9 10 10 10 9 10 12 14 15 15 16 18 19 17 16 19 21 20 19 24 28 28 28 29 29 28 28 28 25 25 24 23 25 26 24 24 26 24 18 17 21 30 35 33 34 37 30 22 19 19 23 28 29 25 24 26 24 21 22 23 22 23 26 30 32 33 34 35 34 33 34 35 35 36 36 34 31
6 5 4 6 7 7 8 8 10 14 13 11 9 11 14 18 17 15 15 14 15 16 14 13 18 25 25 24 26 28 26 26 29 30 30 30 31 29 28 28 26 25 26 26 27 28 26 22 20 21 26 32 34 34 33 30 23 17 20 27 31 27 24 25 25 22 20 21 22 22 23 25 29 32 33 34 36 34 33 33 33 31 32 33 32 29
7 7 5 6 9 10 11 12 15 17 16 13 12 12 14 17 15 13 15 14 13 14 14 14 19 25 27 26 27 26 26 28 32 33 31 30 31 30 28 29 27 25 25 26 27 28 27 24 22 22 23 29 33 32 30 29 25 21 24 30 30 26 26 25 23 21 21 21 21 22 23 24 27 30 33 35 37 36 35 35 34 32 31 31 30 29
5 5 5 6 9 8 9 11 15 18 18 15 14 14 14 17 16 13 10 11 13 16 19 20 22 25 25 24 25 28 30 30 31 33 31 28 29 30 29 28 27 25 24 25 28 28 24 19 19 22 23 24 26 27 26 26 26 26 28 29 27 26 26 24 22 22 22 21 21 21 21 23 24 26 30 33 35 34 35 36 36 34 32 31 30 27
3 2 3 6 9 9 12 15 16 18 17 12 10 11 12 16 21 18 11 10 15 21 21 20 20 23 25 26 26 28 31 31 29 29 29 27 27 27 26 26 26 25 24 26 29 28 21 16 18 22 22 21 24 26 25 24 24 25 26 25 26 26 25 24 24 22 21 21 20 18 20 23 25 26 27 30 32 33 32 34 35 33 33 35 35 30
3 5 5 6 8 10 15 15 11 14 18 16 13 11 9 10 15 20 18 18 21 23 23 21 19 17 19 26 29 28 28 29 28 27 28 27 26 27 27 26 25 24 23 23 26 25 20 17 18 20 20 22 25 25 23 21 22 23 23 23 25 25 23 24 23 21 20 20 18 17 19 22 25 26 26 27 29 32 33 35 37 35 33 36 41 42
5 7 6 5 6 10 13 10 4 6 14 18 17 17 15 11 11 15 20 23 23 22 24 27 28 23 17 19 24 27 27 27 28 29 29 26 26 29 31 28 23 21 20 21 22 23 20 18 19 20 19 21 22 21 19 20 22 23 23 23 25 24 23 22 18 16 16 16 15 15 18 20 22 25 25 25 26 27 28 32 37 38 35 35 41 46
5 8 7 5 8 12 13 7 3 2 11 17 18 19 17 13 12 16 21 23 22 22 23 27 31 32 27 22 22 24 26 27 28 30 29 27 27 29 28 24 20 18 20 20 19 19 18 17 16 15 13 14 17 18 18 20 21 22 24 24 23 23 22 20 14 10 10 12 13 16 18 19 21 22 23 24 26 25 23 23 28 34 34 33 35 39
Wind_Direction
65 27 338 280 272 273 280 265 240 229 167 271 287 283 280 289 290 288 290 289 267 284 289 285 284 288 291 291 289 298 306 300 293 294 291 283 272 271 271 272 274 271 271 280 287 281 265 246 238 232 226 223 219 216 212 209 207 205 202 201 200 200 198 195 195 193 190 190 192 192 193 195 197 199 196 194 195 196 199 201 201 200 198 198 195 192
51 18 282 250 238 244 263 267 259 223 159 226 267 282 290 281 277 285 289 292 299 168 281 294 298 292 291 289 290 297 300 299 299 296 294 291 283 279 276 275 277 278 282 294 294 284 272 249 234 227 221 215 213 212 210 209 208 206 204 203 201 199 196 195 196 195 193 194 194 193 192 192 193 197 197 194 195 196 197 200 201 200 198 197 195 193
11 296 260 251 226 215 259 272 274 237 171 197 245 274 293 282 276 288 290 292 300 151 276 304 315 294 288 286 290 294 290 292 294 289 288 287 285 284 280 279 285 293 298 303 299 298 297 265 239 227 221 216 216 213 210 210 209 207 206 205 203 200 198 197 197 196 195 195 195 195 194 192 191 195 198 197 196 196 196 199 202 202 200 198 197 195
315 266 252 236 156 179 266 291 306 294 181 184 236 272 282 283 288 292 297 305 314 280 275 290 295 285 286 286 289 288 286 290 291 288 284 274 265 275 284 295 296 292 300 305 307 326 349 316 267 239 230 225 223 218 214 212 210 209 208 206 203 201 200 201 200 199 198 196 194 194 195 194 194 197 198 196 195 195 194 196 201 203 201 200 200 199
269 266 270 88 128 182 252 311 321 306 297 207 214 232 258 276 275 268 293 317 320 295 284 288 272 261 276 282 284 287 291 295 294 295 294 282 254 266 288 297 286 286 299 305 316 345 356 337 307 276 255 242 234 227 221 216 213 211 210 207 203 202 202 202 201 200 198 195 191 189 190 191 192 195 193 190 191 192 192 193 196 201 203 201 202 202
267 267 331 64 87 78 355 301 298 283 301 298 226 217 233 259 271 277 299 329 333 294 293 332 299 252 262 278 282 288 292 295 297 299 299 300 305 300 296 298 305 326 332 324 337 353 353 345 334 315 288 261 246 240 233 225 219 215 212 209 205 204 203 201 201 200 197 195 190 185 185 185 185 187 189 190 190 190 191 191 193 198 202 202 202 204
286 308 44 58 312 342 345 286 280 204 293 300 242 202 223 248 268 280 291 308 299 281 288 303 282 270 270 275 278 284 288 289 292 294 296 302 315 338 354 350 354 0 357 356 358 355 351 348 340 325 301 272 254 252 247 237 229 223 218 213 208 206 204 200 199 199 198 197 194 188 187 188 186 186 191 195 193 190 190 191 191 194 199 202 202 203
296 321 341 9 343 344 328 295 262 161 149 264 252 247 282 280 281 280 282 274 253 276 285 276 262 268 270 269 272 277 282 283 285 290 292 301 326 2 22 20 14 8 5 4 357 350 347 341 333 320 305 290 273 265 258 247 240 231 223 218 212 209 205 201 199 197 197 198 198 194 191 190 190 190 193 195 195 192 190 189 190 192 196 200 203 203
272 300 301 338 0 323 274 263 216 156 168 263 268 286 285 278 277 277 277 272 268 284 282 275 264 269 265 266 273 272 274 281 285 286 292 320 357 16 16 8 8 4 0 356 347 342 335 324 322 319 315 309 297 282 267 253 245 237 229 223 216 212 208 204 201 197 196 197 198 198 194 192 192 193 194 193 193 192 189 188 189 191 193 197 201 203
274 253 240 5 313 264 255 251 192 162 237 276 291 299 287 281 266 259 263 271 283 270 268 276 285 273 273 273 278 276 268 277 286 289 317 2 8 5 358 354 354 351 349 346 339 335 328 317 315 318 320 319 315 305 283 261 249 240 234 227 220 217 211 206 203 199 198 197 196 197 195 193 193 193 192 189 189 190 188 188 188 189 191 194 197 200
297 293 192 193 250 217 309 306 199 189 251 299 327 321 312 303 277 259 263 268 30 253 262 276 274 263 276 275 264 266 277 296 308 318 351 4 353 350 349 344 341 339 338 335 332 330 328 324 320 320 321 322 326 324 300 267 252 241 234 228 223 219 213 209 205 201 200 200 199 198 195 193 192 191 189 186 186 187 187 187 188 189 190 192 194 196
317 311 236 246 311 84 25 344 285 249 287 348 353 336 330 305 297 304 296 92 182 260 267 282 279 254 264 276 279 285 299 313 326 341 350 346 340 339 337 335 335 334 335 334 335 335 333 332 329 327 325 326 330 329 312 276 255 242 233 228 224 220 215 212 208 203 200 200 202 202 199 196 194 191 187 185 186 187 187 187 188 189 189 190 193 194
301 266 261 350 62 61 27 350 330 325 345 4 335 338 345 309 311 313 300 284 249 261 280 299 312 286 263 280 295 294 307 327 345 352 342 328 330 332 333 334 334 337 339 339 339 338 337 336 331 327 325 326 330 328 318 294 264 242 232 228 224 222 217 213 211 206 201 199 201 202 201 199 197 195 191 188 188 188 188 189 188 189 189 189 191 192
307 271 3 13 21 26 27 17 331 320 338 332 317 29 357 315 306 291 283 284 267 271 291 294 302 290 271 285 298 297 337 13 355 342 334 329 330 332 336 337 339 342 342 341 341 339 337 333 328 324 320 323 328 325 317 303 274 244 233 229 227 226 221 215 214 211 205 201 200 201 201 199 197 197 195 193 192 191 191 190 190 190 190 191 192 192
314 299 328 16 315 352 16 35 256 296 313 306 283 27 323 309 304 297 300 297 285 286 288 280 278 278 280 299 312 336 18 351 345 345 340 338 335 337 343 344 345 344 344 346 343 339 335 331 328 324 319 320 325 321 313 306 287 247 231 232 231 231 226 219 216 215 211 206 202 200 201 201 198 196 196 196 195 193 192 192 191 191 192 193 194 194
295 275 238 83 20 64 40 358 275 349 322 298 284 321 317 322 301 289 277 276 281 287 284 272 263 269 291 294 311 6 353 342 350 348 340 337 337 342 345 346 349 350 349 349 344 338 335 333 331 326 320 321 324 321 312 308 301 259 233 232 232 233 231 224 219 216 215 211 206 202 200 200 200 198 196 196 195 195 195 195 194 193 193 194 195 195
312 277 271 333 341 96 98 353 331 346 301 305 342 307 296 291 281 281 274 271 281 288 288 282 276 287 302 289 310 10 348 342 344 339 335 334 336 340 343 350 355 353 349 346 342 338 335 336 337 333 332 332 328 323 315 310 311 288 246 235 234 236 235 230 223 218 216 214 211 207 202 199 199 199 199 197 195 194 195 195 196 194 194 194 194 195
350 290 290 321 327 237 102 343 318 272 250 344 338 299 303 287 276 304 296 290 289 281 276 276 281 292 296 286 3 10 343 337 336 333 336 336 337 339 343 353 354 349 345 342 340 338 336 342 344 341 342 340 335 329 319 310 312 304 262 240 236 236 235 232 228 222 218 216 214 210 205 201 200 199 200 200 198 195 194 194 195 194 193 193 193 194
12 297 294 324 351 305 331 350 329 308 55 59 269 292 320 301 304 319 290 297 299 283 280 277 278 281 273 285 3 351 332 327 326 331 338 337 338 340 343 348 348 345 343 340 338 336 339 347 345 342 343 342 340 337 329 317 311 305 275 249 239 235 235 234 231 227 222 218 216 214 208 204 203 201 200 200 199 197 195 195 194 193 193 192 192 193
345 290 289 318 358 330 329 13 2 324 329 322 300 310 303 267 300 316 279 294 299 287 289 293 291 283 277 321 339 328 317 314 321 333 335 336 344 346 344 342 340 340 336 334 335 333 339 345 341 340 341 341 340 340 337 328 316 302 281 260 246 238 236 234 232 229 225 221 219 218 214 208 204 203 202 201 199 197 197 196 196 195 194 192 191 191
356 278 279 309 336 326 316 88 80 330 316 319 326 332 326 296 315 320 287 283 296 295 297 305 291 275 292 331 319 308 302 310 333 336 333 341 350 345 338 333 330 332 329 329 331 332 338 341 336 337 339 340 341 339 339 338 328 311 288 266 255 245 237 233 231 228 226 223 221 220 219 213 207 204 203 202 200 199 198 197 197 196 195 194 192 191
354 268 274 297 313 301 294 348 357 297 291 297 308 320 327 332 335 325 297 286 306 297 293 300 286 279 304 314 294 295 305 324 336 330 327 337 336 330 328 323 322 324 325 325 327 329 334 337 333 334 336 339 341 339 337 339 338 328 304 275 261 250 240 234 230 227 224 222 221 221 219 217 212 207 203 202 202 201 200 199 197 196 195 194 194 193
197 208 271 283 287 283 289 302 300 287 288 306 303 327 343 338 338 320 297 300 303 282 280 282 277 283 321 288 286 307 317 324 324 317 316 317 315 319 316 313 316 319 319 320 321 321 325 329 327 326 331 336 338 337 335 337 340 339 324 294 271 254 245 238 231 226 222 218 220 221 219 218 216 212 207 203 201 201 201 200 198 196 194 193 193 194
173 94 318 290 288 286 286 292 289 307 33 358 311 328 340 320 304 285 282 292 289 282 291 282 271 286 338 290 300 317 316 315 312 305 297 298 308 310 303 308 315 315 317 318 316 315 316 322 325 324 329 334 335 334 334 335 337 341 338 318 288 263 253 244 235 229 222 217 217 217 217 218 217 215 211 206 203 202 200 198 197 196 194 193 192 193
290 317 29 336 306 305 312 330 327 339 1 338 314 327 332 318 310 301 295 295 288 290 297 289 283 299 305 299 312 317 310 307 306 303 288 288 300 301 301 309 309 310 316 316 313 312 311 318 323 323 324 327 331 332 330 331 335 340 343 334 312 282 263 251 238 230 224 220 218 215 215 215 216 216 214 210 207 205 203 200 197 195 194 192 191 192
291 267 77 18 296 299 306 313 314 322 336 322 309 320 326 317 307 303 305 299 289 291 291 283 286 293 295 307 316 307 301 303 305 306 299 292 292 290 298 303 304 311 314 312 312 309 307 314 318 320 322 323 327 329 327 328 333 338 341 338 329 306 279 259 241 229 222 221 219 216 215 213 212 214 215 212 210 208 206 204 201 197 195 193 192 191
281 247 190 204 242 268 281 291 300 307 310 300 301 312 311 298 291 292 297 285 282 289 283 276 288 295 300 311 309 300 300 304 304 302 299 298 298 295 295 294 300 310 311 310 310 302 301 309 313 317 320 320 322 325 325 325 327 335 338 335 331 322 303 280 257 238 225 219 217 216 216 213 211 212 213 213 212 209 206 205 205 202 198 196 194 192
307 278 255 239 250 262 272 284 292 297 295 292 298 305 293 285 286 291 284 279 285 290 284 289 298 298 301 307 302 299 301 301 299 298 297 297 298 297 296 297 305 311 310 308 306 299 298 303 309 315 317 316 318 320 323 323 321 326 331 329 326 323 318 309 287 260 240 226 220 217 216 214 213 212 211 211 212 211 208 206 205 204 200 198 196 195
291 280 276 269 270 273 279 286 289 291 288 286 293 295 286 284 289 289 280 281 286 285 288 302 300 294 297 301 298 296 297 297 298 297 295 293 292 291 295 304 311 313 310 309 305 298 294 296 305 312 313 313 314 316 321 322 319 320 323 324 323 319 320 323 312 284 257 237 226 222 220 216 213 210 208 207 208 211 210 207 206 204 200 199 198 197
247 276 280 281 281 285 292 292 285 285 284 287 294 291 287 288 290 286 283 287 290 288 291 297 294 291 294 295 293 294 294 296 298 295 292 290 288 288 298 308 312 310 307 307 304 297 290 292 302 308 310 312 311 314 319 319 316 316 316 318 319 318 318 321 317 298 270 246 232 227 221 217 212 207 204 203 204 208 209 207 205 203 200 200 199 198
260 277 292 305 293 292 300 300 290 288 289 295 298 290 287 292 295 293 296 302 300 293 292 293 293 293 294 292 294 297 296 296 297 295 294 291 286 291 303 307 308 307 304 302 300 295 290 291 300 306 309 309 308 310 313 314 314 311 310 312 312 313 316 316 314 304 279 253 237 229 220 213 209 204 201 201 202 204 206 206 204 201 199 198 197 197
265 273 301 311 286 289 305 309 304 303 303 301 295 289 291 300 305 303 304 304 300 295 296 295 293 292 296 299 301 300 299 297 295 295 296 291 289 298 303 304 303 302 300 298 296 293 290 293 301 306 308 306 305 306 307 309 311 307 307 309 309 309 314 313 311 306 287 259 240 229 217 208 204 201 200 200 200 201 203 203 201 198 197 196 196 195
216 247 293 291 279 296 305 308 312 314 311 301 290 292 301 305 302 301 299 294 292 294 299 298 292 293 298 300 299 298 297 295 293 295 297 295 297 299 297 296 296 295 293 292 291 289 288 294 300 303 304 303 301 301 303 304 304 304 305 306 305 305 310 312 310 309 295 264 239 226 215 206 201 199 199 199 199 199 198 197 197 196 196 195 194 193
243 251 268 260 269 295 297 304 313 306 294 294 295 299 303 301 298 297 292 288 289 290 289 288 289 292 293 293 292 293 292 290 289 289 290 291 294 294 291 289 288 288 285 283 284 284 286 292 297 299 299 299 298 298 300 300 299 302 305 304 300 299 305 310 310 312 304 271 238 223 214 205 201 199 198 197 197 196 195 194 194 194 193 192 191 192
265 264 262 249 249 280 292 304 303 274 274 297 301 297 294 292 291 288 284 285 289 290 289 289 290 291 292 291 289 287 287 286 284 282 283 286 284 281 282 283 282 282 280 279 280 281 284 291 295 298 297 296 296 296 297 299 301 304 305 302 296 293 300 307 307 313 312 283 242 223 213 206 202 199 196 194 193 194 195 195 192 191 190 190 190 192
221 255 256 245 262 282 290 288 274 274 286 293 291 289 290 290 293 295 293 293 292 292 295 293 290 291 291 290 287 285 288 289 286 280 271 269 272 270 271 275 279 278 277 278 278 278 283 289 291 293 293 292 293 294 295 297 302 304 303 298 290 286 295 304 307 313 315 293 252 229 217 208 203 198 194 191 190 193 196 195 192 190 190 190 190 191
179 218 279 275 269 275 275 267 273 286 294 291 285 287 294 297 300 304 301 294 288 287 288 288 288 290 291 292 292 292 293 292 289 284 260 240 257 262 263 268 274 276 278 278 277 278 281 283 285 286 286 286 288 290 291 295 300 302 298 292 285 283 291 302 306 311 315 301 262 235 223 212 205 201 194 189 188 191 194 195 193 192 190 189 188 189
173 199 229 250 259 278 292 287 285 290 289 286 287 290 294 295 297 303 299 291 287 283 277 279 285 289 292 294 295 296 297 295 290 290 291 269 269 273 276 278 279 281 284 286 286 284 282 281 283 284 285 286 286 285 286 291 296 296 291 285 280 281 287 295 301 306 311 307 279 246 228 215 207 203 196 191 189 190 191 193 194 192 191 191 190 190
128 223 194 217 262 271 284 279 279 280 273 274 283 289 295 298 302 309 297 285 290 293 288 285 290 294 296 296 296 295 294 289 285 291 304 310 302 300 303 302 299 296 294 293 292 291 290 289 290 290 287 284 280 281 286 290 290 288 283 279 277 276 277 282 292 299 303 304 295 266 236 219 208 203 199 195 193 191 190 191 192 192 193 194 193 191
54 297 109 301 267 255 253 267 269 263 262 273 281 287 295 301 307 314 296 288 301 307 305 302 300 300 300 298 297 294 287 285 288 300 313 320 316 311 309 308 306 302 299 297 296 296 295 292 289 285 280 277 279 286 289 287 282 278 277 277 274 269 264 269 281 291 294 295 295 281 249 225 211 204 200 197 196 193 191 190 189 189 190 193 194 191
331 295 274 247 261 267 271 272 272 268 273 278 280 285 298 307 308 301 288 292 305 307 306 305 302 302 306 309 310 307 298 300 303 305 310 312 309 307 308 308 305 301 298 297 298 299 299 296 290 283 278 280 285 287 284 279 275 277 280 278 269 259 260 265 273 283 286 284 285 281 258 231 216 209 203 199 196 194 192 190 188 187 187 189 190 189
318 296 273 256 264 272 263 264 277 279 270 269 279 295 311 317 303 290 287 295 302 304 306 308 308 314 325 327 320 308 297 298 300 299 300 301 301 304 308 309 308 302 299 298 298 299 300 295 291 288 282 280 280 277 275 276 279 282 280 274 261 258 261 264 268 275 279 275 273 273 258 234 219 211 206 200 196 193 191 190 188 187 186 186 187 187
264 241 269 268 269 275 270 270 279 273 268 295 322 321 318 306 293 293 298 302 305 309 315 317 318 327 334 324 311 302 298 300 301 300 301 301 302 306 307 306 306 303 300 300 300 300 298 293 293 294 290 286 282 277 277 277 276 278 275 264 258 260 260 262 265 269 271 267 264 262 253 234 219 210 204 199 195 192 189 188 187 186 186 186 187 187
253 200 230 265 268 277 272 260 258 266 281 310 322 305 289 288 290 296 306 311 314 321 329 328 321 322 323 316 308 303 302 303 303 304 306 306 306 309 307 304 303 300 297 297 298 299 299 295 296 296 292 289 285 278 274 269 263 266 265 258 259 260 257 259 263 263 263 261 257 254 246 231 217 207 201 197 194 190 189 187 185 185 186 186 186 186
244 221 232 258 256 255 258 259 266 274 284 297 298 286 287 292 295 306 319 322 320 324 329 324 314 314 316 316 310 304 302 304 305 306 307 306 306 307 306 303 301 298 296 295 296 296 296 294 294 294 292 289 285 279 273 266 260 259 260 260 261 259 255 257 260 259 258 256 252 247 239 227 213 203 197 194 191 189 188 186 184 184 186 186 187 188
243 231 232 255 262 262 264 267 272 279 284 289 290 291 295 297 306 327 332 325 319 319 319 313 307 309 312 314 310 305 304 308 307 306 305 304 303 304 303 300 299 297 295 295 294 295 294 294 294 293 290 286 282 278 272 266 260 256 257 261 261 259 256 256 257 259 259 255 250 243 233 221 209 199 194 192 191 190 189 186 185 185 186 186 189 191
241 223 221 254 273 279 275 271 274 280 288 296 301 304 307 309 319 335 334 320 315 314 312 311 309 309 310 309 305 302 303 305 306 305 306 306 303 302 301 299 297 296 294 293 293 294 295 295 293 292 290 286 283 279 274 268 262 258 257 260 260 259 258 257 257 260 260 255 249 239 225 212 203 195 191 190 190 191 191 189 188 187 186 187 188 191
257 264 257 259 268 274 273 275 282 287 290 294 298 303 316 324 325 328 330 325 318 313 310 309 309 311 313 310 306 303 303 304 306 305 304 303 301 300 298 296 295 295 296 294 294 293 292 290 289 290 290 289 287 284 279 272 266 262 260 261 261 260 260 260 259 258 256 253 247 232 215 205 198 192 190 189 190 191 191 191 191 191 192 191 187 186
266 276 271 265 271 274 273 281 302 310 305 302 296 300 330 341 322 319 324 325 321 316 315 315 313 312 313 311 310 309 308 306 305 302 300 299 299 299 297 294 292 292 292 292 293 293 291 287 287 287 285 284 285 286 282 277 274 273 271 271 270 266 262 260 258 254 251 250 243 222 205 197 193 191 189 188 191 193 194 193 193 194 196 197 193 191
243 257 260 266 271 272 277 291 348 336 305 302 306 319 339 345 325 318 321 321 322 324 325 325 321 319 318 315 312 310 308 307 307 307 306 305 302 299 296 293 291 291 290 290 292 291 287 281 277 276 277 282 290 296 295 291 290 289 288 285 280 274 267 262 259 253 245 241 232 211 196 189 187 189 189 187 189 193 196 197 198 198 198 199 200 198
219 241 240 242 258 269 281 304 34 353 289 294 308 324 337 341 335 326 321 320 324 329 332 329 324 323 324 324 318 312 310 312 314 315 314 312 310 308 303 295 290 291 294 296 297 295 293 291 291 296 302 311 318 317 310 305 303 303 301 295 289 284 276 266 259 252 237 227 214 200 190 183 183 185 187 187 188 188 189 193 199 202 203 203 203 202